RYR4KR EDDH-LPPR

Flight info

Callsign RYR4KR
Flight time 2h 3m
Altitude 38000
Route WSN5G WSN N125 EKNON DCT NOGRO M40 SABER L980 MANGO L620 SAM/N0445F390 M195 LORKU DCT LOTEE DCT ELTEP/N0374F230 T328 ASPOR
Aircraft B737/M-SDE2E3FGHIRWXY/LB1

Departure

Time 2026-05-06 20:21
Airport Hamburg Helmut Schmidt Airport (EDDH)

Arrival

Time 2026-05-06 22:25
Airport Francisco de Sá Carneiro Airport (LPPR)
Time Latitude Longitude Altitude Speed Heading
2026-05-06 19:59 53.62774 10.00276 47 ft 0 kts 62°
2026-05-06 20:14 53.62771 10.00269 47 ft 4 kts 62°
2026-05-06 20:14 53.62759 10.00229 45 ft 4 kts 62°
2026-05-06 20:14 53.62749 10.00197 46 ft 4 kts 58°
2026-05-06 20:14 53.62732 10.00173 46 ft 4 kts 351°
2026-05-06 20:15 53.62710 10.00188 47 ft 3 kts 333°
2026-05-06 20:15 53.62708 10.00190 46 ft 1 kts 333°
2026-05-06 20:18 53.62713 10.00186 47 ft 2 kts 333°
2026-05-06 20:18 53.62738 10.00164 44 ft 6 kts 333°
2026-05-06 20:18 53.62788 10.00121 46 ft 9 kts 333°
2026-05-06 20:19 53.62842 10.00074 47 ft 9 kts 333°
2026-05-06 20:19 53.62897 10.00039 47 ft 8 kts 346°
2026-05-06 20:19 53.62917 9.99981 47 ft 5 kts 242°
2026-05-06 20:19 53.62899 9.99925 47 ft 6 kts 243°
2026-05-06 20:20 53.62893 9.99905 46 ft 2 kts 243°
2026-05-06 20:20 53.62880 9.99860 46 ft 7 kts 243°
2026-05-06 20:20 53.62871 9.99754 44 ft 11 kts 307°
2026-05-06 20:20 53.62933 9.99689 44 ft 10 kts 333°
2026-05-06 20:21 53.63163 9.99492 45 ft 75 kts 333°
2026-05-06 20:21 53.63851 9.98895 48 ft 143 kts 332°
2026-05-06 20:21 53.64839 9.98028 467 ft 162 kts 336°
2026-05-06 20:21 53.65830 9.97180 1344 ft 159 kts 338°
2026-05-06 20:22 53.66841 9.96322 2129 ft 166 kts 339°
2026-05-06 20:22 53.67897 9.95454 2962 ft 169 kts 339°
2026-05-06 20:22 53.68939 9.94586 3882 ft 169 kts 338°
2026-05-06 20:22 53.70040 9.93656 4548 ft 184 kts 336°
2026-05-06 20:23 53.71079 9.92251 5190 ft 205 kts 309°
2026-05-06 20:23 53.71645 9.89832 5464 ft 246 kts 272°
2026-05-06 20:23 53.71229 9.86859 5908 ft 274 kts 247°
2026-05-06 20:23 53.70487 9.83837 6807 ft 282 kts 250°
2026-05-06 20:24 53.69811 9.80778 7820 ft 283 kts 251°
2026-05-06 20:24 53.69157 9.77622 8773 ft 288 kts 252°
2026-05-06 20:24 53.68511 9.74419 9817 ft 288 kts 252°
2026-05-06 20:24 53.67870 9.71181 10594 ft 298 kts 252°
2026-05-06 20:25 53.67186 9.67700 10839 ft 326 kts 252°
2026-05-06 20:25 53.66452 9.63977 11381 ft 340 kts 252°
2026-05-06 20:25 53.65698 9.60167 12239 ft 344 kts 252°
2026-05-06 20:25 53.64736 9.56475 13159 ft 347 kts 238°
2026-05-06 20:26 53.63329 9.53129 14090 ft 350 kts 234°
2026-05-06 20:26 53.61865 9.49825 14950 ft 353 kts 234°
2026-05-06 20:26 53.60390 9.46496 15826 ft 356 kts 234°
2026-05-06 20:26 53.58914 9.43125 16704 ft 359 kts 234°
2026-05-06 20:27 53.57429 9.39700 17538 ft 364 kts 235°
2026-05-06 20:27 53.55142 9.34395 18728 ft 370 kts 235°
2026-05-06 20:27 53.49049 9.20307 21609 ft 384 kts 234°
2026-05-06 20:27 53.42536 9.05336 24222 ft 399 kts 234°
2026-05-06 20:28 53.35907 8.90184 26545 ft 408 kts 234°
2026-05-06 20:28 53.31426 8.72688 28637 ft 418 kts 252°
2026-05-06 20:28 53.27843 8.56176 30201 ft 428 kts 248°
2026-05-06 20:28 53.23935 8.37233 31753 ft 432 kts 252°
2026-05-06 20:29 53.20462 8.18185 33715 ft 424 kts 252°
2026-05-06 20:29 53.16885 7.99462 34924 ft 426 kts 252°
2026-05-06 20:29 53.13331 7.80663 36113 ft 425 kts 252°
2026-05-06 20:29 53.09710 7.61781 37112 ft 428 kts 251°
2026-05-06 20:30 53.06056 7.42981 38025 ft 431 kts 251°
2026-05-06 20:30 52.98319 7.04054 37930 ft 446 kts 250°
2026-05-06 20:31 52.90430 6.65813 37915 ft 430 kts 250°
2026-05-06 20:31 52.82722 6.29063 37942 ft 418 kts 250°
2026-05-06 20:32 52.74625 5.92828 37991 ft 431 kts 246°
2026-05-06 20:32 52.64582 5.56084 37943 ft 442 kts 246°
2026-05-06 20:33 52.55206 5.21619 37928 ft 432 kts 245°
2026-05-06 20:33 52.52453 5.11621 37958 ft 428 kts 245°
2026-05-06 20:34 52.49999 5.02749 37959 ft 426 kts 245°
2026-05-06 20:34 52.47583 4.94041 37963 ft 425 kts 245°
2026-05-06 20:35 52.45108 4.85151 37966 ft 425 kts 245°
2026-05-06 20:35 52.42644 4.76331 37969 ft 426 kts 245°
2026-05-06 20:36 52.40582 4.68980 37977 ft 428 kts 245°
2026-05-06 20:36 52.38085 4.60107 37975 ft 430 kts 245°
2026-05-06 20:37 52.35565 4.51184 37975 ft 433 kts 245°
2026-05-06 20:37 52.33021 4.42212 37972 ft 434 kts 245°
2026-05-06 20:38 52.30486 4.33307 37975 ft 435 kts 245°
2026-05-06 20:38 52.29209 4.28831 37972 ft 435 kts 245°
2026-05-06 20:39 52.28328 4.25751 37971 ft 435 kts 245°
2026-05-06 20:39 52.25761 4.16795 37982 ft 434 kts 245°
2026-05-06 20:40 52.23195 4.07877 37982 ft 433 kts 245°
2026-05-06 20:40 52.20645 3.99049 37983 ft 432 kts 245°
2026-05-06 20:41 52.18080 3.90198 37984 ft 431 kts 245°
2026-05-06 20:41 52.15514 3.81380 37981 ft 430 kts 245°
2026-05-06 20:42 52.12951 3.72601 37977 ft 429 kts 245°
2026-05-06 20:42 52.10383 3.63843 37982 ft 428 kts 245°
2026-05-06 20:43 52.07817 3.55118 37978 ft 427 kts 245°
2026-05-06 20:43 52.05250 3.46423 37971 ft 427 kts 245°
2026-05-06 20:44 52.02677 3.37737 37975 ft 426 kts 245°
2026-05-06 20:44 52.00117 3.29122 37975 ft 426 kts 245°
2026-05-06 20:45 51.97557 3.20456 37980 ft 426 kts 248°
2026-05-06 20:45 51.96064 3.11150 37986 ft 429 kts 264°
2026-05-06 20:46 51.95481 3.01475 37982 ft 433 kts 264°
2026-05-06 20:46 51.94894 2.91766 37981 ft 433 kts 264°
2026-05-06 20:47 51.94262 2.82102 37984 ft 427 kts 264°
2026-05-06 20:47 51.93619 2.72545 37986 ft 425 kts 263°
2026-05-06 20:48 51.92976 2.63098 37991 ft 423 kts 263°
2026-05-06 20:48 51.92323 2.53632 38000 ft 423 kts 263°
2026-05-06 20:49 51.91661 2.44118 38008 ft 427 kts 263°
2026-05-06 20:49 51.90982 2.34465 38003 ft 433 kts 263°
2026-05-06 20:50 51.90569 2.24711 38003 ft 435 kts 268°
2026-05-06 20:50 51.90396 2.14897 37999 ft 436 kts 268°
2026-05-06 20:51 51.90190 2.05137 38004 ft 436 kts 267°
2026-05-06 20:51 51.89946 1.95339 38002 ft 435 kts 267°
2026-05-06 20:52 51.89256 1.85647 38001 ft 433 kts 254°
2026-05-06 20:52 51.87384 1.76371 38004 ft 432 kts 251°
2026-05-06 20:53 51.85442 1.67172 38007 ft 431 kts 251°
2026-05-06 20:53 51.83544 1.58045 38007 ft 431 kts 252°
2026-05-06 20:54 51.81651 1.48868 38005 ft 430 kts 252°
2026-05-06 20:54 51.79757 1.39698 38004 ft 429 kts 252°
2026-05-06 20:55 51.77857 1.30547 38005 ft 429 kts 252°
2026-05-06 20:55 51.75948 1.21400 38002 ft 429 kts 251°
2026-05-06 20:56 51.74033 1.12259 38005 ft 430 kts 251°
2026-05-06 20:56 51.72118 1.03156 38009 ft 431 kts 251°
2026-05-06 20:57 51.70308 0.93949 38003 ft 431 kts 258°
2026-05-06 20:57 51.69598 0.84353 38014 ft 432 kts 263°
2026-05-06 20:58 51.68434 0.76888 38021 ft 432 kts 247°
2026-05-06 20:58 51.65299 0.68663 38035 ft 434 kts 230°
2026-05-06 20:59 51.61372 0.61331 38017 ft 434 kts 233°
2026-05-06 20:59 51.57858 0.53428 38017 ft 435 kts 236°
2026-05-06 21:00 51.54389 0.45460 38014 ft 435 kts 236°
2026-05-06 21:00 51.50745 0.37672 38018 ft 436 kts 231°
2026-05-06 21:01 51.49123 0.34643 38020 ft 436 kts 230°
2026-05-06 21:01 51.45149 0.27467 38021 ft 437 kts 229°
2026-05-06 21:02 51.41079 0.20116 38045 ft 437 kts 230°
2026-05-06 21:02 51.40425 0.18926 38023 ft 437 kts 230°
2026-05-06 21:03 51.36770 0.12256 38019 ft 437 kts 230°
2026-05-06 21:03 51.32806 0.05006 38016 ft 438 kts 230°
2026-05-06 21:04 51.28795 -0.02318 38021 ft 438 kts 230°
2026-05-06 21:04 51.24777 -0.09634 38017 ft 438 kts 230°
2026-05-06 21:05 51.20754 -0.16933 38022 ft 438 kts 230°
2026-05-06 21:05 51.16723 -0.24228 38020 ft 438 kts 229°
2026-05-06 21:06 51.12725 -0.31440 38017 ft 438 kts 229°
2026-05-06 21:06 51.08685 -0.38709 38024 ft 438 kts 229°
2026-05-06 21:07 51.04644 -0.45957 38019 ft 438 kts 229°
2026-05-06 21:07 51.00603 -0.53186 38013 ft 437 kts 229°
2026-05-06 21:08 50.96554 -0.60408 38008 ft 437 kts 229°
2026-05-06 21:08 50.92505 -0.67612 38002 ft 437 kts 229°
2026-05-06 21:09 50.88451 -0.74801 37990 ft 438 kts 229°
2026-05-06 21:09 50.84389 -0.81985 38003 ft 438 kts 229°
2026-05-06 21:10 50.80325 -0.89152 38003 ft 438 kts 229°
2026-05-06 21:10 50.76283 -0.96261 38007 ft 438 kts 229°
2026-05-06 21:11 50.72204 -1.03414 38006 ft 438 kts 229°
2026-05-06 21:11 50.68124 -1.10551 37997 ft 438 kts 229°
2026-05-06 21:12 50.64035 -1.17682 37993 ft 438 kts 229°
2026-05-06 21:12 50.59943 -1.24798 38004 ft 438 kts 229°
2026-05-06 21:13 50.55873 -1.31856 38005 ft 438 kts 229°
2026-05-06 21:13 50.51767 -1.38957 37998 ft 438 kts 229°
2026-05-06 21:14 50.47668 -1.46026 38003 ft 438 kts 229°
2026-05-06 21:14 50.43559 -1.53092 38003 ft 438 kts 229°
2026-05-06 21:15 50.30948 -1.74665 38008 ft 438 kts 229°
2026-05-06 21:15 50.14424 -2.02652 38006 ft 438 kts 228°
2026-05-06 21:16 49.97927 -2.30292 38016 ft 438 kts 228°
2026-05-06 21:16 49.88120 -2.41706 38022 ft 441 kts 204°
2026-05-06 21:16 49.77057 -2.49315 38025 ft 441 kts 206°
2026-05-06 21:17 49.54794 -2.65493 38013 ft 442 kts 206°
2026-05-06 21:17 49.32466 -2.81507 38014 ft 443 kts 206°
2026-05-06 21:18 49.10085 -2.97402 38002 ft 443 kts 206°
2026-05-06 21:18 48.87827 -3.13053 38011 ft 443 kts 206°
2026-05-06 21:19 48.65375 -3.28686 38017 ft 444 kts 206°
2026-05-06 21:19 48.42887 -3.44191 37997 ft 444 kts 206°
2026-05-06 21:20 48.20375 -3.59559 37991 ft 443 kts 206°
2026-05-06 21:20 47.97857 -3.74786 38005 ft 443 kts 205°
2026-05-06 21:21 47.75354 -3.89854 37999 ft 443 kts 205°
2026-05-06 21:21 47.53023 -4.04668 37996 ft 442 kts 205°
2026-05-06 21:22 47.30557 -4.19432 38007 ft 441 kts 205°
2026-05-06 21:22 47.08118 -4.34041 38011 ft 441 kts 205°
2026-05-06 21:23 46.85671 -4.48521 38011 ft 440 kts 205°
2026-05-06 21:23 46.67030 -4.60444 38015 ft 440 kts 205°
2026-05-06 21:24 46.44580 -4.74686 38022 ft 440 kts 205°
2026-05-06 21:24 46.22126 -4.88803 38029 ft 440 kts 205°
2026-05-06 21:25 45.99977 -5.02604 38028 ft 440 kts 205°
2026-05-06 21:25 45.77330 -5.16592 38031 ft 439 kts 204°
2026-05-06 21:26 45.54837 -5.30361 38026 ft 439 kts 204°
2026-05-06 21:26 45.39164 -5.39886 38027 ft 439 kts 204°
2026-05-06 21:27 45.33536 -5.43291 38026 ft 439 kts 204°
2026-05-06 21:27 45.27914 -5.46685 38031 ft 438 kts 204°
2026-05-06 21:28 45.22299 -5.50069 38028 ft 438 kts 204°
2026-05-06 21:28 45.16689 -5.53442 38031 ft 438 kts 204°
2026-05-06 21:29 45.11113 -5.56787 38027 ft 437 kts 204°
2026-05-06 21:29 45.05505 -5.60145 38030 ft 437 kts 204°
2026-05-06 21:30 44.99908 -5.63489 38028 ft 436 kts 204°
2026-05-06 21:30 44.94314 -5.66824 38025 ft 436 kts 204°
2026-05-06 21:31 44.88723 -5.70150 38027 ft 436 kts 204°
2026-05-06 21:31 44.83143 -5.73463 38021 ft 435 kts 204°
2026-05-06 21:32 44.77565 -5.76768 38022 ft 435 kts 204°
2026-05-06 21:32 44.69191 -5.81718 38023 ft 435 kts 204°
2026-05-06 21:33 44.63825 -5.85539 38022 ft 432 kts 216°
2026-05-06 21:33 44.58958 -5.90386 38023 ft 431 kts 217°
2026-05-06 21:34 44.54086 -5.95306 38020 ft 432 kts 217°
2026-05-06 21:34 44.49194 -6.00190 38019 ft 431 kts 216°
2026-05-06 21:35 44.44290 -6.05038 38018 ft 431 kts 216°
2026-05-06 21:35 44.39377 -6.09875 38022 ft 431 kts 216°
2026-05-06 21:36 44.34462 -6.14701 38017 ft 431 kts 216°
2026-05-06 21:36 44.29547 -6.19518 38014 ft 431 kts 216°
2026-05-06 21:37 44.24638 -6.24320 38018 ft 431 kts 216°
2026-05-06 21:37 44.19747 -6.29094 38016 ft 431 kts 216°
2026-05-06 21:38 44.14819 -6.33895 38010 ft 431 kts 216°
2026-05-06 21:38 44.09904 -6.38672 38011 ft 431 kts 216°
2026-05-06 21:39 44.04976 -6.43453 38009 ft 431 kts 216°
2026-05-06 21:39 44.00054 -6.48219 38012 ft 431 kts 216°
2026-05-06 21:40 43.95154 -6.52952 38010 ft 431 kts 216°
2026-05-06 21:40 43.90229 -6.57701 38008 ft 431 kts 216°
2026-05-06 21:41 43.85300 -6.62443 38009 ft 431 kts 216°
2026-05-06 21:41 43.80368 -6.67179 38013 ft 431 kts 216°
2026-05-06 21:42 43.75435 -6.71905 38008 ft 431 kts 216°
2026-05-06 21:42 43.70490 -6.76634 38008 ft 431 kts 216°
2026-05-06 21:43 43.65553 -6.81346 38011 ft 431 kts 216°
2026-05-06 21:43 43.60617 -6.86047 38010 ft 431 kts 216°
2026-05-06 21:44 43.55679 -6.90741 38010 ft 431 kts 216°
2026-05-06 21:44 43.50731 -6.95434 38009 ft 431 kts 216°
2026-05-06 21:45 43.45787 -7.00114 38008 ft 431 kts 216°
2026-05-06 21:45 43.40872 -7.04757 38017 ft 431 kts 216°
2026-05-06 21:46 43.35922 -7.09424 38009 ft 431 kts 216°
2026-05-06 21:46 43.30971 -7.14082 38020 ft 431 kts 215°
2026-05-06 21:47 43.26021 -7.18731 38016 ft 431 kts 215°
2026-05-06 21:47 43.21075 -7.23366 38008 ft 430 kts 215°
2026-05-06 21:48 43.16127 -7.27993 38018 ft 430 kts 215°
2026-05-06 21:48 43.11216 -7.32577 38017 ft 430 kts 215°
2026-05-06 21:49 43.06275 -7.37181 38014 ft 430 kts 215°
2026-05-06 21:49 43.01334 -7.41774 38010 ft 430 kts 215°
2026-05-06 21:50 42.96387 -7.46365 37899 ft 431 kts 215°
2026-05-06 21:50 42.93905 -7.48665 37600 ft 430 kts 215°
2026-05-06 21:50 42.91435 -7.50951 37337 ft 427 kts 215°
2026-05-06 21:51 42.88982 -7.53219 37077 ft 426 kts 215°
2026-05-06 21:51 42.86538 -7.55477 37101 ft 423 kts 215°
2026-05-06 21:51 42.81644 -7.59992 37078 ft 423 kts 215°
2026-05-06 21:52 42.79229 -7.62217 36699 ft 417 kts 214°
2026-05-06 21:52 42.76828 -7.64426 36300 ft 414 kts 214°
2026-05-06 21:52 42.74427 -7.66634 35936 ft 420 kts 214°
2026-05-06 21:52 42.71994 -7.68870 35587 ft 424 kts 214°
2026-05-06 21:53 42.69542 -7.71121 35217 ft 425 kts 214°
2026-05-06 21:53 42.67128 -7.73335 34861 ft 423 kts 214°
2026-05-06 21:53 42.64697 -7.75561 34502 ft 420 kts 214°
2026-05-06 21:53 42.62215 -7.77644 34145 ft 418 kts 207°
2026-05-06 21:54 42.59560 -7.79227 33755 ft 416 kts 199°
2026-05-06 21:54 42.56778 -7.80317 33358 ft 415 kts 196°
2026-05-06 21:54 42.53990 -7.81335 32946 ft 412 kts 195°
2026-05-06 21:54 42.51238 -7.82330 32528 ft 406 kts 195°
2026-05-06 21:55 42.48530 -7.83314 32123 ft 400 kts 195°
2026-05-06 21:55 42.45854 -7.84297 31733 ft 396 kts 195°
2026-05-06 21:55 42.43201 -7.85279 31342 ft 393 kts 195°
2026-05-06 21:55 42.40574 -7.86256 30966 ft 391 kts 195°
2026-05-06 21:56 42.37991 -7.87219 30596 ft 389 kts 195°
2026-05-06 21:56 42.35389 -7.88190 30232 ft 387 kts 195°
2026-05-06 21:56 42.32799 -7.89157 29823 ft 385 kts 195°
2026-05-06 21:56 42.30218 -7.90118 29397 ft 384 kts 195°
2026-05-06 21:57 42.27649 -7.91075 29013 ft 383 kts 195°
2026-05-06 21:57 42.25087 -7.92028 29005 ft 382 kts 195°
2026-05-06 21:57 42.19953 -7.93936 28983 ft 383 kts 195°
2026-05-06 21:58 42.14816 -7.95841 28969 ft 382 kts 195°
2026-05-06 21:58 42.09681 -7.97743 28975 ft 381 kts 195°
2026-05-06 21:59 42.04566 -7.99634 28974 ft 381 kts 195°
2026-05-06 21:59 42.02001 -8.00581 28868 ft 383 kts 195°
2026-05-06 21:59 41.99432 -8.01529 28566 ft 382 kts 195°
2026-05-06 22:00 41.96883 -8.02469 28286 ft 378 kts 195°
2026-05-06 22:00 41.94385 -8.03388 28009 ft 377 kts 194°
2026-05-06 22:00 41.91864 -8.04316 27740 ft 375 kts 195°
2026-05-06 22:00 41.89348 -8.05242 27477 ft 375 kts 195°
2026-05-06 22:01 41.86831 -8.06167 27205 ft 374 kts 195°
2026-05-06 22:01 41.84328 -8.07113 26945 ft 373 kts 199°
2026-05-06 22:01 41.82063 -8.08783 26664 ft 374 kts 218°
2026-05-06 22:01 41.80263 -8.11282 26352 ft 376 kts 234°
2026-05-06 22:02 41.78949 -8.14328 25995 ft 378 kts 240°
2026-05-06 22:02 41.77738 -8.17454 25604 ft 376 kts 242°
2026-05-06 22:02 41.76562 -8.20564 25227 ft 373 kts 242°
2026-05-06 22:02 41.75395 -8.23648 24861 ft 369 kts 242°
2026-05-06 22:03 41.74229 -8.26697 24502 ft 366 kts 241°
2026-05-06 22:03 41.73064 -8.29711 24142 ft 362 kts 240°
2026-05-06 22:03 41.71499 -8.32284 23731 ft 357 kts 216°
2026-05-06 22:03 41.69347 -8.33858 23392 ft 352 kts 199°
2026-05-06 22:04 41.66974 -8.34600 22990 ft 349 kts 190°
2026-05-06 22:04 41.64584 -8.35107 22448 ft 347 kts 189°
2026-05-06 22:04 41.62189 -8.35567 21815 ft 348 kts 188°
2026-05-06 22:04 41.59789 -8.36024 21249 ft 347 kts 188°
2026-05-06 22:05 41.57410 -8.36486 20742 ft 345 kts 189°
2026-05-06 22:05 41.55143 -8.36937 20262 ft 343 kts 189°
2026-05-06 22:05 41.52818 -8.37407 19750 ft 339 kts 189°
2026-05-06 22:05 41.50502 -8.37881 19118 ft 336 kts 189°
2026-05-06 22:06 41.48192 -8.38357 18433 ft 336 kts 189°
2026-05-06 22:06 41.45887 -8.38834 17712 ft 334 kts 189°
2026-05-06 22:06 41.44767 -8.39065 17383 ft 332 kts 189°
2026-05-06 22:06 41.42496 -8.39536 16741 ft 328 kts 189°
2026-05-06 22:07 41.40249 -8.40001 16104 ft 325 kts 189°
2026-05-06 22:07 41.38024 -8.40462 15481 ft 322 kts 189°
2026-05-06 22:07 41.35818 -8.40919 14859 ft 319 kts 189°
2026-05-06 22:07 41.33636 -8.41370 14256 ft 316 kts 189°
2026-05-06 22:08 41.31470 -8.41818 13652 ft 314 kts 189°
2026-05-06 22:08 41.29324 -8.42262 13020 ft 310 kts 189°
2026-05-06 22:08 41.27204 -8.42700 12412 ft 306 kts 189°
2026-05-06 22:08 41.25112 -8.43131 11815 ft 303 kts 189°
2026-05-06 22:09 41.23049 -8.43557 11352 ft 296 kts 189°
2026-05-06 22:09 41.21066 -8.43965 11194 ft 279 kts 189°
2026-05-06 22:09 41.19178 -8.44354 10830 ft 272 kts 188°
2026-05-06 22:09 41.17342 -8.44732 10357 ft 270 kts 188°
2026-05-06 22:10 41.15492 -8.45113 9890 ft 268 kts 188°
2026-05-06 22:10 41.13652 -8.45491 9364 ft 266 kts 188°
2026-05-06 22:10 41.11814 -8.45869 8901 ft 268 kts 188°
2026-05-06 22:10 41.10592 -8.46120 8670 ft 267 kts 188°
2026-05-06 22:11 41.08763 -8.46496 8302 ft 265 kts 188°
2026-05-06 22:11 41.06940 -8.46870 7915 ft 264 kts 188°
2026-05-06 22:11 41.05128 -8.47242 7535 ft 263 kts 188°
2026-05-06 22:11 41.03319 -8.47612 7159 ft 263 kts 188°
2026-05-06 22:12 41.01509 -8.47983 6773 ft 263 kts 188°
2026-05-06 22:12 40.99697 -8.48353 6403 ft 263 kts 188°
2026-05-06 22:12 40.97889 -8.48727 6000 ft 263 kts 189°
2026-05-06 22:12 40.96081 -8.49104 5615 ft 263 kts 189°
2026-05-06 22:13 40.94297 -8.49472 5326 ft 260 kts 189°
2026-05-06 22:13 40.92501 -8.49837 5084 ft 259 kts 189°
2026-05-06 22:13 40.90739 -8.50192 4843 ft 260 kts 189°
2026-05-06 22:13 40.88941 -8.50547 4598 ft 262 kts 189°
2026-05-06 22:14 40.87126 -8.50901 4340 ft 266 kts 189°
2026-05-06 22:14 40.85291 -8.51258 4102 ft 266 kts 189°
2026-05-06 22:14 40.83461 -8.51612 4026 ft 266 kts 189°
2026-05-06 22:14 40.81634 -8.51965 4008 ft 264 kts 189°
2026-05-06 22:15 40.79971 -8.52861 3997 ft 257 kts 223°
2026-05-06 22:15 40.79053 -8.54804 4002 ft 251 kts 260°
2026-05-06 22:15 40.79167 -8.57052 4015 ft 248 kts 289°
2026-05-06 22:15 40.79907 -8.59096 4008 ft 248 kts 307°
2026-05-06 22:16 40.81150 -8.60647 3998 ft 246 kts 329°
2026-05-06 22:16 40.82740 -8.61445 3993 ft 245 kts 352°
2026-05-06 22:16 40.84421 -8.61515 4000 ft 245 kts
2026-05-06 22:16 40.86142 -8.61471 4000 ft 244 kts
2026-05-06 22:17 40.87798 -8.61421 3995 ft 243 kts
2026-05-06 22:17 40.89491 -8.61373 3987 ft 243 kts
2026-05-06 22:17 40.91180 -8.61332 3988 ft 243 kts
2026-05-06 22:17 40.92871 -8.61294 3991 ft 242 kts
2026-05-06 22:18 40.94552 -8.61260 3989 ft 241 kts
2026-05-06 22:18 40.96217 -8.61226 3987 ft 238 kts
2026-05-06 22:18 40.97839 -8.61364 4006 ft 229 kts 351°
2026-05-06 22:18 40.99388 -8.61753 4005 ft 224 kts 348°
2026-05-06 22:19 41.00896 -8.62151 3996 ft 218 kts 349°
2026-05-06 22:19 41.02372 -8.62520 3991 ft 214 kts 349°
2026-05-06 22:19 41.03800 -8.62875 3981 ft 209 kts 349°
2026-05-06 22:19 41.05231 -8.63231 3816 ft 205 kts 349°
2026-05-06 22:20 41.06600 -8.63572 3554 ft 196 kts 349°
2026-05-06 22:20 41.07866 -8.63888 3324 ft 180 kts 350°
2026-05-06 22:20 41.09083 -8.64190 3083 ft 177 kts 349°
2026-05-06 22:20 41.10292 -8.64492 2846 ft 177 kts 349°
2026-05-06 22:21 41.11510 -8.64795 2608 ft 177 kts 349°
2026-05-06 22:21 41.12713 -8.65094 2374 ft 175 kts 349°
2026-05-06 22:21 41.13902 -8.65391 2151 ft 173 kts 350°
2026-05-06 22:21 41.15043 -8.65675 1910 ft 159 kts 351°
2026-05-06 22:22 41.16059 -8.65929 1729 ft 140 kts 351°
2026-05-06 22:22 41.16961 -8.66153 1525 ft 125 kts 349°
2026-05-06 22:22 41.17777 -8.66354 1333 ft 118 kts 350°
2026-05-06 22:22 41.18591 -8.66540 1254 ft 119 kts 350°
2026-05-06 22:23 41.19423 -8.66741 1080 ft 124 kts 350°
2026-05-06 22:23 41.20278 -8.66927 908 ft 125 kts 349°
2026-05-06 22:23 41.21127 -8.67168 724 ft 125 kts 350°
2026-05-06 22:23 41.21988 -8.67394 615 ft 128 kts 349°
2026-05-06 22:24 41.22876 -8.67622 397 ft 131 kts 350°
2026-05-06 22:24 41.23775 -8.67852 228 ft 127 kts 349°
2026-05-06 22:24 41.24537 -8.68055 205 ft 95 kts 348°
2026-05-06 22:24 41.25018 -8.68180 182 ft 53 kts 355°
2026-05-06 22:25 41.25227 -8.68128 177 ft 19 kts 17°
2026-05-06 22:25 41.25295 -8.68061 174 ft 13 kts 92°
2026-05-06 22:25 41.25224 -8.68012 179 ft 12 kts 163°
2026-05-06 22:25 41.25142 -8.67985 182 ft 12 kts 168°
2026-05-06 22:26 41.25061 -8.67962 184 ft 12 kts 168°
2026-05-06 22:26 41.24983 -8.67942 194 ft 11 kts 170°
2026-05-06 22:26 41.24905 -8.67920 195 ft 12 kts 162°
2026-05-06 22:26 41.24823 -8.67866 205 ft 13 kts 152°
2026-05-06 22:27 41.24739 -8.67824 202 ft 13 kts 169°
2026-05-06 22:27 41.24653 -8.67801 209 ft 12 kts 167°
2026-05-06 22:27 41.24564 -8.67777 212 ft 13 kts 169°
2026-05-06 22:27 41.24463 -8.67750 217 ft 15 kts 168°
2026-05-06 22:28 41.24359 -8.67721 223 ft 15 kts 169°
2026-05-06 22:28 41.24272 -8.67655 229 ft 15 kts 126°
2026-05-06 22:28 41.24194 -8.67574 235 ft 14 kts 168°
2026-05-06 22:28 41.24100 -8.67549 236 ft 14 kts 168°
2026-05-06 22:29 41.24009 -8.67524 237 ft 13 kts 168°
2026-05-06 22:29 41.23921 -8.67500 237 ft 13 kts 168°
2026-05-06 22:29 41.23835 -8.67477 236 ft 12 kts 168°
2026-05-06 22:29 41.23754 -8.67448 238 ft 12 kts 145°
2026-05-06 22:30 41.23700 -8.67365 236 ft 12 kts 142°
2026-05-06 22:30 41.23633 -8.67332 236 ft 0 kts 168°
2026-05-06 22:30 41.23632 -8.67332 236 ft 0 kts 168°
2026-05-06 22:30 41.23618 -8.67329 237 ft 4 kts 174°
2026-05-06 22:31 41.23592 -8.67301 237 ft 6 kts 95°
2026-05-06 22:31 41.23591 -8.67253 238 ft 3 kts 93°
2026-05-06 22:31 41.23590 -8.67231 239 ft 1 kts 93°
2026-05-06 22:31 41.23590 -8.67227 239 ft 0 kts 93°